Location: *
(44.1392°N, 4.8079°E)
Time: 08:38:42
(UTC+00:00)

USA 307 - Pass Details

Date: 21 June 2021
Orbit: 565 x 576 km, 54.0° (Epoch: 17 July)

Event Time Altitude Azimuth Distance (km) Brightness Sun altitude
Exits shadow 02:14:28 12° 264° (W) 1,750 5.0 -14.0°
Maximum altitude 02:18:11 41° 334° (NNW) 833 3.9 -13.6°
Drops below altitude 10° 02:22:13 10° 46° (NE) 1,868 7.0 -13.2°
Sets 02:24:34 0° 53° (NE) 2,765 8.0 -12.9°
